Year,Month,Day,Hour,Minute,Value (Times are PST for temperature in C)
2015,04,10,00,00,9.30
2015,04,10,00,01,9.30
2015,04,10,00,02,9.30
2015,04,10,00,03,9.30
2015,04,10,00,04,9.30
2015,04,10,00,05,9.30
2015,04,10,00,06,9.30
2015,04,10,00,07,9.30
2015,04,10,00,08,9.30
2015,04,10,00,09,9.20
2015,04,10,00,10,9.20
2015,04,10,00,11,9.20
2015,04,10,00,12,9.20
2015,04,10,00,13,9.20
2015,04,10,00,14,9.20
2015,04,10,00,15,9.20
2015,04,10,00,16,9.20
2015,04,10,00,17,9.20
2015,04,10,00,18,9.20
2015,04,10,00,19,9.30
2015,04,10,00,20,9.30
2015,04,10,00,21,9.30
2015,04,10,00,22,9.30
2015,04,10,00,23,9.30
2015,04,10,00,24,9.30
2015,04,10,00,25,9.30
2015,04,10,00,26,9.30
2015,04,10,00,27,9.30
2015,04,10,00,28,9.20
2015,04,10,00,29,9.20
2015,04,10,00,30,9.20
2015,04,10,00,31,9.20
2015,04,10,00,32,9.20
2015,04,10,00,33,9.20
2015,04,10,00,34,9.20
2015,04,10,00,35,9.20
2015,04,10,00,36,9.20
2015,04,10,00,37,9.20
2015,04,10,00,38,9.20
2015,04,10,00,39,9.20
2015,04,10,00,40,9.20
2015,04,10,00,41,9.20
2015,04,10,00,42,9.20
2015,04,10,00,43,9.20
2015,04,10,00,44,9.20
2015,04,10,00,45,9.20
2015,04,10,00,46,9.20
2015,04,10,00,47,9.20
2015,04,10,00,48,9.20
2015,04,10,00,49,9.20
2015,04,10,00,50,9.20
2015,04,10,00,51,9.20
2015,04,10,00,52,9.20
2015,04,10,00,53,9.20
2015,04,10,00,54,9.20
2015,04,10,00,55,9.20
2015,04,10,00,56,9.10
2015,04,10,00,57,9.10
2015,04,10,00,58,9.10
2015,04,10,00,59,9.10
2015,04,10,01,00,9.10
2015,04,10,01,01,9.10
2015,04,10,01,02,9.10
2015,04,10,01,03,9.10
2015,04,10,01,04,9.10
2015,04,10,01,05,9.10
2015,04,10,01,06,9.00
2015,04,10,01,07,9.00
2015,04,10,01,08,9.00
2015,04,10,01,09,9.00
2015,04,10,01,10,9.00
2015,04,10,01,11,9.00
2015,04,10,01,12,9.00
2015,04,10,01,13,9.00
2015,04,10,01,14,9.00
2015,04,10,01,15,8.90
2015,04,10,01,16,8.90
2015,04,10,01,17,8.90
2015,04,10,01,18,8.90
2015,04,10,01,19,8.90
2015,04,10,01,20,8.90
2015,04,10,01,21,8.90
2015,04,10,01,22,8.90
2015,04,10,01,23,8.90
2015,04,10,01,24,8.90
2015,04,10,01,25,8.90
2015,04,10,01,26,8.90
2015,04,10,01,27,8.90
2015,04,10,01,28,8.90
2015,04,10,01,29,9.00
2015,04,10,01,30,9.00
2015,04,10,01,31,9.00
2015,04,10,01,32,9.00
2015,04,10,01,33,9.00
2015,04,10,01,34,9.00
2015,04,10,01,35,9.00
2015,04,10,01,36,9.00
2015,04,10,01,37,9.00
2015,04,10,01,38,9.00
2015,04,10,01,39,9.00
2015,04,10,01,40,9.00
2015,04,10,01,41,9.00
2015,04,10,01,42,8.90
2015,04,10,01,43,8.90
2015,04,10,01,44,8.90
2015,04,10,01,45,8.80
2015,04,10,01,46,8.80
2015,04,10,01,47,8.80
2015,04,10,01,48,8.70
2015,04,10,01,49,8.70
2015,04,10,01,50,8.70
2015,04,10,01,51,8.70
2015,04,10,01,52,8.70
2015,04,10,01,53,8.60
2015,04,10,01,54,8.60
2015,04,10,01,55,8.60
2015,04,10,01,56,8.60
2015,04,10,01,57,8.50
2015,04,10,01,58,8.50
2015,04,10,01,59,8.40
2015,04,10,02,00,8.40
2015,04,10,02,01,8.40
2015,04,10,02,02,8.30
2015,04,10,02,03,8.30
2015,04,10,02,04,8.30
2015,04,10,02,05,8.30
2015,04,10,02,06,8.30
2015,04,10,02,07,8.20
2015,04,10,02,08,8.20
2015,04,10,02,09,8.20
2015,04,10,02,10,8.10
2015,04,10,02,11,8.10
2015,04,10,02,12,8.00
2015,04,10,02,13,8.00
2015,04,10,02,14,7.90
2015,04,10,02,15,7.90
2015,04,10,02,16,7.90
2015,04,10,02,17,7.80
2015,04,10,02,18,7.80
2015,04,10,02,19,7.80
2015,04,10,02,20,7.80
2015,04,10,02,21,7.70
2015,04,10,02,22,7.70
2015,04,10,02,23,7.70
2015,04,10,02,24,7.60
2015,04,10,02,25,7.60
2015,04,10,02,26,7.60
2015,04,10,02,27,7.60
2015,04,10,02,28,7.60
2015,04,10,02,29,7.60
2015,04,10,02,30,7.60
2015,04,10,02,31,7.50
2015,04,10,02,32,7.50
2015,04,10,02,33,7.50
2015,04,10,02,34,7.50
2015,04,10,02,35,7.50
2015,04,10,02,36,7.50
2015,04,10,02,37,7.50
2015,04,10,02,38,7.50
2015,04,10,02,39,7.40
2015,04,10,02,40,7.40
2015,04,10,02,41,7.40
2015,04,10,02,42,7.40
2015,04,10,02,43,7.40
2015,04,10,02,44,7.40
2015,04,10,02,45,7.40
2015,04,10,02,46,7.40
2015,04,10,02,47,7.30
2015,04,10,02,48,7.30
2015,04,10,02,49,7.30
2015,04,10,02,50,7.30
2015,04,10,02,51,7.30
2015,04,10,02,52,7.30
2015,04,10,02,53,7.30
2015,04,10,02,54,7.30
2015,04,10,02,55,7.30
2015,04,10,02,56,7.30
2015,04,10,02,57,7.30
2015,04,10,02,58,7.30
2015,04,10,02,59,7.20
2015,04,10,03,00,7.20
2015,04,10,03,01,7.20
2015,04,10,03,02,7.20
2015,04,10,03,03,7.20
2015,04,10,03,04,7.20
2015,04,10,03,05,7.20
2015,04,10,03,06,7.20
2015,04,10,03,07,7.20
2015,04,10,03,08,7.20
2015,04,10,03,09,7.20
2015,04,10,03,10,7.20
2015,04,10,03,11,7.20
2015,04,10,03,12,7.20
2015,04,10,03,13,7.20
2015,04,10,03,14,7.10
2015,04,10,03,15,7.10
2015,04,10,03,16,7.10
2015,04,10,03,17,7.10
2015,04,10,03,18,7.10
2015,04,10,03,19,7.10
2015,04,10,03,20,7.10
2015,04,10,03,21,7.10
2015,04,10,03,22,7.10
2015,04,10,03,23,7.10
2015,04,10,03,24,7.00
2015,04,10,03,25,7.00
2015,04,10,03,26,6.90
2015,04,10,03,27,6.90
2015,04,10,03,28,6.80
2015,04,10,03,29,6.80
2015,04,10,03,30,6.80
2015,04,10,03,31,6.70
2015,04,10,03,32,6.70
2015,04,10,03,33,6.70
2015,04,10,03,34,6.60
2015,04,10,03,35,6.60
2015,04,10,03,36,6.60
2015,04,10,03,37,6.60
2015,04,10,03,38,6.50
2015,04,10,03,39,6.50
2015,04,10,03,40,6.50
2015,04,10,03,41,6.40
2015,04,10,03,42,6.40
2015,04,10,03,43,6.40
2015,04,10,03,44,6.40
2015,04,10,03,45,6.40
2015,04,10,03,46,6.30
2015,04,10,03,47,6.30
2015,04,10,03,48,6.30
2015,04,10,03,49,6.30
2015,04,10,03,50,6.30
2015,04,10,03,51,6.30
2015,04,10,03,52,6.30
2015,04,10,03,53,6.20
2015,04,10,03,54,6.20
2015,04,10,03,55,6.20
2015,04,10,03,56,6.10
2015,04,10,03,57,6.10
2015,04,10,03,58,6.10
2015,04,10,03,59,6.10
2015,04,10,04,00,6.00
2015,04,10,04,01,6.00
2015,04,10,04,02,6.00
2015,04,10,04,03,5.90
2015,04,10,04,04,5.90
2015,04,10,04,05,5.90
2015,04,10,04,06,5.90
2015,04,10,04,07,5.90
2015,04,10,04,08,5.80
2015,04,10,04,09,5.80
2015,04,10,04,10,5.80
2015,04,10,04,11,5.80
2015,04,10,04,12,5.70
2015,04,10,04,13,5.70
2015,04,10,04,14,5.70
2015,04,10,04,15,5.70
2015,04,10,04,16,5.70
2015,04,10,04,17,5.60
2015,04,10,04,18,5.60
2015,04,10,04,19,5.60
2015,04,10,04,20,5.60
2015,04,10,04,21,5.60
2015,04,10,04,22,5.60
2015,04,10,04,23,5.60
2015,04,10,04,24,5.60
2015,04,10,04,25,5.60
2015,04,10,04,26,5.60
2015,04,10,04,27,5.60
2015,04,10,04,28,5.60
2015,04,10,04,29,5.60
2015,04,10,04,30,5.60
2015,04,10,04,31,5.60
2015,04,10,04,32,5.60
2015,04,10,04,33,5.60
2015,04,10,04,34,5.60
2015,04,10,04,35,5.60
2015,04,10,04,36,5.60
2015,04,10,04,37,5.60
2015,04,10,04,38,5.60
2015,04,10,04,39,5.50
2015,04,10,04,40,5.50
2015,04,10,04,41,5.50
2015,04,10,04,42,5.40
2015,04,10,04,43,5.40
2015,04,10,04,44,5.40
2015,04,10,04,45,5.40
2015,04,10,04,46,5.40
2015,04,10,04,47,5.40
2015,04,10,04,48,5.40
2015,04,10,04,49,5.40
2015,04,10,04,50,5.40
2015,04,10,04,51,5.40
2015,04,10,04,52,5.40
2015,04,10,04,53,5.40
2015,04,10,04,54,5.40
2015,04,10,04,55,5.40
2015,04,10,04,56,5.40
2015,04,10,04,57,5.40
2015,04,10,04,58,5.30
2015,04,10,04,59,5.30
2015,04,10,05,00,5.30
2015,04,10,05,01,5.30
2015,04,10,05,02,5.30
2015,04,10,05,03,5.30
2015,04,10,05,04,5.30
2015,04,10,05,05,5.30
2015,04,10,05,06,5.30
2015,04,10,05,07,5.30
2015,04,10,05,08,5.20
2015,04,10,05,09,5.20
2015,04,10,05,10,5.20
2015,04,10,05,11,5.20
2015,04,10,05,12,5.30
2015,04,10,05,13,5.30
2015,04,10,05,14,5.30
2015,04,10,05,15,5.30
2015,04,10,05,16,5.30
2015,04,10,05,17,5.30
2015,04,10,05,18,5.30
2015,04,10,05,19,5.30
2015,04,10,05,20,5.30
2015,04,10,05,21,5.30
2015,04,10,05,22,5.30
2015,04,10,05,23,5.30
2015,04,10,05,24,5.30
2015,04,10,05,25,5.20
2015,04,10,05,26,5.20
2015,04,10,05,27,5.20
2015,04,10,05,28,5.20
2015,04,10,05,29,5.20
2015,04,10,05,30,5.20
2015,04,10,05,31,5.20
2015,04,10,05,32,5.20
2015,04,10,05,33,5.20
2015,04,10,05,34,5.20
2015,04,10,05,35,5.20
2015,04,10,05,36,5.20
2015,04,10,05,37,5.20
2015,04,10,05,38,5.20
2015,04,10,05,39,5.20
2015,04,10,05,40,5.30
2015,04,10,05,41,5.30
2015,04,10,05,42,5.30
2015,04,10,05,43,5.30
2015,04,10,05,44,5.30
2015,04,10,05,45,5.30
2015,04,10,05,46,5.30
2015,04,10,05,47,5.30
2015,04,10,05,48,5.30
2015,04,10,05,49,5.30
2015,04,10,05,50,5.40
2015,04,10,05,51,5.40
2015,04,10,05,52,5.40
2015,04,10,05,53,5.50
2015,04,10,05,54,5.50
2015,04,10,05,55,5.50
2015,04,10,05,56,5.60
2015,04,10,05,57,5.60
2015,04,10,05,58,5.60
2015,04,10,05,59,5.60
2015,04,10,06,00,5.70
2015,04,10,06,01,5.70
2015,04,10,06,02,5.70
2015,04,10,06,03,5.80
2015,04,10,06,04,5.80
2015,04,10,06,05,5.80
2015,04,10,06,06,5.80
2015,04,10,06,07,5.80
2015,04,10,06,08,5.80
2015,04,10,06,09,5.90
2015,04,10,06,10,5.90
2015,04,10,06,11,5.90
2015,04,10,06,12,5.90
2015,04,10,06,13,5.90
2015,04,10,06,14,5.90
2015,04,10,06,15,5.90
2015,04,10,06,16,5.90
2015,04,10,06,17,5.80
2015,04,10,06,18,5.80
2015,04,10,06,19,5.80
2015,04,10,06,20,5.80
2015,04,10,06,21,5.90
2015,04,10,06,22,5.80
2015,04,10,06,23,5.80
2015,04,10,06,24,5.80
2015,04,10,06,25,5.90
2015,04,10,06,26,5.90
2015,04,10,06,27,5.90
2015,04,10,06,28,5.90
2015,04,10,06,29,5.80
2015,04,10,06,30,5.80
2015,04,10,06,31,5.80
2015,04,10,06,32,5.80
2015,04,10,06,33,5.90
2015,04,10,06,34,5.90
2015,04,10,06,35,5.90
2015,04,10,06,36,5.90
2015,04,10,06,37,5.90
2015,04,10,06,38,5.90
2015,04,10,06,39,5.90
2015,04,10,06,40,5.90
2015,04,10,06,41,5.90
2015,04,10,06,42,6.00
2015,04,10,06,43,6.00
2015,04,10,06,44,6.00
2015,04,10,06,45,6.00
2015,04,10,06,46,6.00
2015,04,10,06,47,6.00
2015,04,10,06,48,6.00
2015,04,10,06,49,6.00
2015,04,10,06,50,6.00
2015,04,10,06,51,6.00
2015,04,10,06,52,5.90
2015,04,10,06,53,5.90
2015,04,10,06,54,5.90
2015,04,10,06,55,5.90
2015,04,10,06,56,5.90
2015,04,10,06,57,5.90
2015,04,10,06,58,5.90
2015,04,10,06,59,5.90
2015,04,10,07,00,5.90
2015,04,10,07,01,5.90
2015,04,10,07,02,5.90
2015,04,10,07,03,6.00
2015,04,10,07,04,6.10
2015,04,10,07,05,6.10
2015,04,10,07,06,6.10
2015,04,10,07,07,6.10
2015,04,10,07,08,6.10
2015,04,10,07,09,6.10
2015,04,10,07,10,6.10
2015,04,10,07,11,6.10
2015,04,10,07,12,6.10
2015,04,10,07,13,6.10
2015,04,10,07,14,6.10
2015,04,10,07,15,6.20
2015,04,10,07,16,6.20
2015,04,10,07,17,6.20
2015,04,10,07,18,6.20
2015,04,10,07,19,6.20
2015,04,10,07,20,6.20
2015,04,10,07,21,6.20
2015,04,10,07,22,6.20
2015,04,10,07,23,6.30
2015,04,10,07,24,6.30
2015,04,10,07,25,6.30
2015,04,10,07,26,6.40
2015,04,10,07,27,6.40
2015,04,10,07,28,6.50
2015,04,10,07,29,6.70
2015,04,10,07,30,6.80
2015,04,10,07,31,7.00
2015,04,10,07,32,7.20
2015,04,10,07,33,7.30
2015,04,10,07,34,7.40
2015,04,10,07,35,7.50
2015,04,10,07,36,7.60
2015,04,10,07,37,7.60
2015,04,10,07,38,7.70
2015,04,10,07,39,7.70
2015,04,10,07,40,7.80
2015,04,10,07,41,7.80
2015,04,10,07,42,7.80
2015,04,10,07,43,7.90
2015,04,10,07,44,7.90
2015,04,10,07,45,7.90
2015,04,10,07,46,7.90
2015,04,10,07,47,7.90
2015,04,10,07,48,7.90
2015,04,10,07,49,8.00
2015,04,10,07,50,8.00
2015,04,10,07,51,8.00
2015,04,10,07,52,8.00
2015,04,10,07,53,8.10
2015,04,10,07,54,8.10
2015,04,10,07,55,8.10
2015,04,10,07,56,8.10
2015,04,10,07,57,8.10
2015,04,10,07,58,8.10
2015,04,10,07,59,8.10
2015,04,10,08,00,8.10
2015,04,10,08,01,8.10
2015,04,10,08,02,8.10
2015,04,10,08,03,8.10
2015,04,10,08,04,8.20
2015,04,10,08,05,8.20
2015,04,10,08,06,8.20
2015,04,10,08,07,8.20
2015,04,10,08,08,8.20
2015,04,10,08,09,8.20
2015,04,10,08,10,8.20
2015,04,10,08,11,8.20
2015,04,10,08,12,8.20
2015,04,10,08,13,8.30
2015,04,10,08,14,8.30
2015,04,10,08,15,8.30
2015,04,10,08,16,8.30
2015,04,10,08,17,8.30
2015,04,10,08,18,8.30
2015,04,10,08,19,8.30
2015,04,10,08,20,8.30
2015,04,10,08,21,8.40
2015,04,10,08,22,8.40
2015,04,10,08,23,8.40
2015,04,10,08,24,8.40
2015,04,10,08,25,8.40
2015,04,10,08,26,8.40
2015,04,10,08,27,8.50
2015,04,10,08,28,8.50
2015,04,10,08,29,8.50
2015,04,10,08,30,8.60
2015,04,10,08,31,8.60
2015,04,10,08,32,8.60
2015,04,10,08,33,8.60
2015,04,10,08,34,8.60
2015,04,10,08,35,8.60
2015,04,10,08,36,8.60
2015,04,10,08,37,8.60
2015,04,10,08,38,8.60
2015,04,10,08,39,8.60
2015,04,10,08,40,8.70
2015,04,10,08,41,8.70
2015,04,10,08,42,8.70
2015,04,10,08,43,8.70
2015,04,10,08,44,8.70
2015,04,10,08,45,8.70
2015,04,10,08,46,8.70
2015,04,10,08,47,8.70
2015,04,10,08,48,8.70
2015,04,10,08,49,8.80
2015,04,10,08,50,8.80
2015,04,10,08,51,8.80
2015,04,10,08,52,8.80
2015,04,10,08,53,8.80
2015,04,10,08,54,8.80
2015,04,10,08,55,8.80
2015,04,10,08,56,8.80
2015,04,10,08,57,8.80
2015,04,10,08,58,8.80
2015,04,10,08,59,8.90
2015,04,10,09,00,8.90
2015,04,10,09,01,8.90
2015,04,10,09,02,8.90
2015,04,10,09,03,8.90
2015,04,10,09,04,9.00
2015,04,10,09,05,9.00
2015,04,10,09,06,9.00
2015,04,10,09,07,9.10
2015,04,10,09,08,9.10
2015,04,10,09,09,9.10
2015,04,10,09,10,9.10
2015,04,10,09,11,9.10
2015,04,10,09,12,9.20
2015,04,10,09,13,9.20
2015,04,10,09,14,9.20
2015,04,10,09,15,9.20
2015,04,10,09,16,9.20
2015,04,10,09,17,9.20
2015,04,10,09,18,9.30
2015,04,10,09,19,9.30
2015,04,10,09,20,9.30
2015,04,10,09,21,9.30
2015,04,10,09,22,9.30
2015,04,10,09,23,9.30
2015,04,10,09,24,9.30
2015,04,10,09,25,9.40
2015,04,10,09,26,9.40
2015,04,10,09,27,9.40
2015,04,10,09,28,9.40
2015,04,10,09,29,9.40
2015,04,10,09,30,9.50
2015,04,10,09,31,9.50
2015,04,10,09,32,9.50
2015,04,10,09,33,9.60
2015,04,10,09,34,9.60
2015,04,10,09,35,9.60
2015,04,10,09,36,9.60
2015,04,10,09,37,9.70
2015,04,10,09,38,9.70
2015,04,10,09,39,9.70
2015,04,10,09,40,9.70
2015,04,10,09,41,9.70
2015,04,10,09,42,9.70
2015,04,10,09,43,9.70
2015,04,10,09,44,9.70
2015,04,10,09,45,9.70
2015,04,10,09,46,9.70
2015,04,10,09,47,9.70
2015,04,10,09,48,9.70
2015,04,10,09,49,9.70
2015,04,10,09,50,9.70
2015,04,10,09,51,9.70
2015,04,10,09,52,9.70
2015,04,10,09,53,9.80
2015,04,10,09,54,9.80
2015,04,10,09,55,9.80
2015,04,10,09,56,9.80
2015,04,10,09,57,9.80
2015,04,10,09,58,9.80
2015,04,10,09,59,9.80
2015,04,10,10,00,9.80
2015,04,10,10,01,9.70
2015,04,10,10,02,9.70
2015,04,10,10,03,9.70
2015,04,10,10,04,9.60
2015,04,10,10,05,9.60
2015,04,10,10,06,9.60
2015,04,10,10,07,9.60
2015,04,10,10,08,9.60
2015,04,10,10,09,9.60
2015,04,10,10,10,9.60
2015,04,10,10,11,9.60
2015,04,10,10,12,9.60
2015,04,10,10,13,9.60
2015,04,10,10,14,9.60
2015,04,10,10,15,9.60
2015,04,10,10,16,9.50
2015,04,10,10,17,9.50
2015,04,10,10,18,9.50
2015,04,10,10,19,9.50
2015,04,10,10,20,9.50
2015,04,10,10,21,9.50
2015,04,10,10,22,9.50
2015,04,10,10,23,9.50
2015,04,10,10,24,9.50
2015,04,10,10,25,9.50
2015,04,10,10,26,9.50
2015,04,10,10,27,9.50
2015,04,10,10,28,9.60
2015,04,10,10,29,9.60
2015,04,10,10,30,9.60
2015,04,10,10,31,9.60
2015,04,10,10,32,9.60
2015,04,10,10,33,9.60
2015,04,10,10,34,9.60
2015,04,10,10,35,9.60
2015,04,10,10,36,9.60
2015,04,10,10,37,9.60
2015,04,10,10,38,9.60
2015,04,10,10,39,9.70
2015,04,10,10,40,9.70
2015,04,10,10,41,9.70
2015,04,10,10,42,9.70
2015,04,10,10,43,9.70
2015,04,10,10,44,9.70
2015,04,10,10,45,9.70
2015,04,10,10,46,9.70
2015,04,10,10,47,9.70
2015,04,10,10,48,9.70
2015,04,10,10,49,9.70
2015,04,10,10,50,9.70
2015,04,10,10,51,9.70
2015,04,10,10,52,9.70
2015,04,10,10,53,9.70
2015,04,10,10,54,9.70
2015,04,10,10,55,9.60
2015,04,10,10,56,9.60
2015,04,10,10,57,9.60
2015,04,10,10,58,9.60
2015,04,10,10,59,9.60
2015,04,10,11,00,9.60
2015,04,10,11,01,9.70
2015,04,10,11,02,9.70
2015,04,10,11,03,9.70
2015,04,10,11,04,9.70
2015,04,10,11,05,9.70
2015,04,10,11,06,9.70
2015,04,10,11,07,9.70
2015,04,10,11,08,9.70
2015,04,10,11,09,9.70
2015,04,10,11,10,9.60
2015,04,10,11,11,9.60
2015,04,10,11,12,9.60
2015,04,10,11,13,9.60
2015,04,10,11,14,9.60
2015,04,10,11,15,9.70
2015,04,10,11,16,9.70
2015,04,10,11,17,9.70
2015,04,10,11,18,9.70
2015,04,10,11,19,9.70
2015,04,10,11,20,9.80
2015,04,10,11,21,9.80
2015,04,10,11,22,9.80
2015,04,10,11,23,9.80
2015,04,10,11,24,9.90
2015,04,10,11,25,9.90
2015,04,10,11,26,9.90
2015,04,10,11,27,9.90
2015,04,10,11,28,9.90
2015,04,10,11,29,9.90
2015,04,10,11,30,9.90
2015,04,10,11,31,9.90
2015,04,10,11,32,9.90
2015,04,10,11,33,9.90
2015,04,10,11,34,9.90
2015,04,10,11,35,9.90
2015,04,10,11,36,9.90
2015,04,10,11,37,9.90
2015,04,10,11,38,10.00
2015,04,10,11,39,10.00
2015,04,10,11,40,10.00
2015,04,10,11,41,10.00
2015,04,10,11,42,10.00
2015,04,10,11,43,10.00
2015,04,10,11,44,10.00
2015,04,10,11,45,10.00
2015,04,10,11,46,10.00
2015,04,10,11,47,10.00
2015,04,10,11,48,10.10
2015,04,10,11,49,10.10
2015,04,10,11,50,10.10
2015,04,10,11,51,10.10
2015,04,10,11,52,10.10
2015,04,10,11,53,10.10
2015,04,10,11,54,10.10
2015,04,10,11,55,10.10
2015,04,10,11,56,10.20
2015,04,10,11,57,10.20
2015,04,10,11,58,10.20
2015,04,10,11,59,10.20
2015,04,10,12,00,10.20
2015,04,10,12,01,10.20
2015,04,10,12,02,10.30
2015,04,10,12,03,10.30
2015,04,10,12,04,10.30
2015,04,10,12,05,10.30
2015,04,10,12,06,10.30
2015,04,10,12,07,10.30
2015,04,10,12,08,10.30
2015,04,10,12,09,10.30
2015,04,10,12,10,10.30
2015,04,10,12,11,10.30
2015,04,10,12,12,10.30
2015,04,10,12,13,10.30
2015,04,10,12,14,10.30
2015,04,10,12,15,10.30
2015,04,10,12,16,10.30
2015,04,10,12,17,10.30
2015,04,10,12,18,10.30
2015,04,10,12,19,10.30
2015,04,10,12,20,10.30
2015,04,10,12,21,10.30
2015,04,10,12,22,10.30
2015,04,10,12,23,10.30
2015,04,10,12,24,10.20
2015,04,10,12,25,10.20
2015,04,10,12,26,10.20
2015,04,10,12,27,10.10
2015,04,10,12,28,10.10
2015,04,10,12,29,10.00
2015,04,10,12,30,10.00
2015,04,10,12,31,9.90
2015,04,10,12,32,9.90
2015,04,10,12,33,9.90
2015,04,10,12,34,9.90
2015,04,10,12,35,9.90
2015,04,10,12,36,9.90
2015,04,10,12,37,9.90
2015,04,10,12,38,10.00
2015,04,10,12,39,10.00
2015,04,10,12,40,9.90
2015,04,10,12,41,10.00
2015,04,10,12,42,10.00
2015,04,10,12,43,10.00
2015,04,10,12,44,10.00
2015,04,10,12,45,10.00
2015,04,10,12,46,10.00
2015,04,10,12,47,9.90
2015,04,10,12,48,9.90
2015,04,10,12,49,9.90
2015,04,10,12,50,9.80
2015,04,10,12,51,9.80
2015,04,10,12,52,9.90
2015,04,10,12,53,9.80
2015,04,10,12,54,9.80
2015,04,10,12,55,9.90
2015,04,10,12,56,9.90
2015,04,10,12,57,9.90
2015,04,10,12,58,10.00
2015,04,10,12,59,10.00
2015,04,10,13,00,10.00
2015,04,10,13,01,10.10
2015,04,10,13,02,10.10
2015,04,10,13,03,10.10
2015,04,10,13,04,10.10
2015,04,10,13,05,10.10
2015,04,10,13,06,10.00
2015,04,10,13,07,10.00
2015,04,10,13,08,10.00
2015,04,10,13,09,10.00
2015,04,10,13,10,10.00
2015,04,10,13,11,10.00
2015,04,10,13,12,10.00
2015,04,10,13,13,10.00
2015,04,10,13,14,10.00
2015,04,10,13,15,10.00
2015,04,10,13,16,10.00
2015,04,10,13,17,10.00
2015,04,10,13,18,10.00
2015,04,10,13,19,10.10
2015,04,10,13,20,10.10
2015,04,10,13,21,10.10
2015,04,10,13,22,10.20
2015,04,10,13,23,10.20
2015,04,10,13,24,10.20
2015,04,10,13,25,10.20
2015,04,10,13,26,10.20
2015,04,10,13,27,10.20
2015,04,10,13,28,10.20
2015,04,10,13,29,10.20
2015,04,10,13,30,10.10
2015,04,10,13,31,10.10
2015,04,10,13,32,10.20
2015,04,10,13,33,10.10
2015,04,10,13,34,10.10
2015,04,10,13,35,10.10
2015,04,10,13,36,10.00
2015,04,10,13,37,10.00
2015,04,10,13,38,10.00
2015,04,10,13,39,9.90
2015,04,10,13,40,9.90
2015,04,10,13,41,9.90
2015,04,10,13,42,9.90
2015,04,10,13,43,9.90
2015,04,10,13,44,10.00
2015,04,10,13,45,10.00
2015,04,10,13,46,10.00
2015,04,10,13,47,10.00
2015,04,10,13,48,10.00
2015,04,10,13,49,10.10
2015,04,10,13,50,10.10
2015,04,10,13,51,10.10
2015,04,10,13,52,10.10
2015,04,10,13,53,10.10
2015,04,10,13,54,10.20
2015,04,10,13,55,10.20
2015,04,10,13,56,10.30
2015,04,10,13,57,10.30
2015,04,10,13,58,10.40
2015,04,10,13,59,10.40
2015,04,10,14,00,10.40
2015,04,10,14,01,10.40
2015,04,10,14,02,10.40
2015,04,10,14,03,10.40
2015,04,10,14,04,10.40
2015,04,10,14,05,10.40
2015,04,10,14,06,10.40
2015,04,10,14,07,10.40
2015,04,10,14,08,10.30
2015,04,10,14,09,10.30
2015,04,10,14,10,10.30
2015,04,10,14,11,10.30
2015,04,10,14,12,10.30
2015,04,10,14,13,10.20
2015,04,10,14,14,10.20
2015,04,10,14,15,10.20
2015,04,10,14,16,10.20
2015,04,10,14,17,10.30
2015,04,10,14,18,10.30
2015,04,10,14,19,10.30
2015,04,10,14,20,10.40
2015,04,10,14,21,10.40
2015,04,10,14,22,10.40
2015,04,10,14,23,10.40
2015,04,10,14,24,10.40
2015,04,10,14,25,10.50
2015,04,10,14,26,10.50
2015,04,10,14,27,10.50
2015,04,10,14,28,10.50
2015,04,10,14,29,10.50
2015,04,10,14,30,10.50
2015,04,10,14,31,10.50
2015,04,10,14,32,10.50
2015,04,10,14,33,10.60
2015,04,10,14,34,10.60
2015,04,10,14,35,10.60
2015,04,10,14,36,10.60
2015,04,10,14,37,10.60
2015,04,10,14,38,10.60
2015,04,10,14,39,10.60
2015,04,10,14,40,10.70
2015,04,10,14,41,10.70
2015,04,10,14,42,10.70
2015,04,10,14,43,10.70
2015,04,10,14,44,10.80
2015,04,10,14,45,10.80
2015,04,10,14,46,10.80
2015,04,10,14,47,10.80
2015,04,10,14,48,10.80
2015,04,10,14,49,10.80
2015,04,10,14,50,10.80
2015,04,10,14,51,10.80
2015,04,10,14,52,10.80
2015,04,10,14,53,10.80
2015,04,10,14,54,10.80
2015,04,10,14,55,10.80
2015,04,10,14,56,10.80
2015,04,10,14,57,10.80
2015,04,10,14,58,10.80
2015,04,10,14,59,10.80
2015,04,10,15,00,10.80
2015,04,10,15,01,10.80
2015,04,10,15,02,10.80
2015,04,10,15,03,10.80
2015,04,10,15,04,10.80
2015,04,10,15,05,10.80
2015,04,10,15,06,10.90
2015,04,10,15,07,10.90
2015,04,10,15,08,11.00
2015,04,10,15,09,11.10
2015,04,10,15,10,11.10
2015,04,10,15,11,11.20
2015,04,10,15,12,11.30
2015,04,10,15,13,11.30
2015,04,10,15,14,11.40
2015,04,10,15,15,11.40
2015,04,10,15,16,11.50
2015,04,10,15,17,11.60
2015,04,10,15,18,11.60
2015,04,10,15,19,11.70
2015,04,10,15,20,11.70
2015,04,10,15,21,11.80
2015,04,10,15,22,11.80
2015,04,10,15,23,11.90
2015,04,10,15,24,11.90
2015,04,10,15,25,11.90
2015,04,10,15,26,11.90
2015,04,10,15,27,11.90
2015,04,10,15,28,11.90
2015,04,10,15,29,11.90
2015,04,10,15,30,11.90
2015,04,10,15,31,11.90
2015,04,10,15,32,11.90
2015,04,10,15,33,12.00
2015,04,10,15,34,12.00
2015,04,10,15,35,12.10
2015,04,10,15,36,12.10
2015,04,10,15,37,12.20
2015,04,10,15,38,12.20
2015,04,10,15,39,12.30
2015,04,10,15,40,12.40
2015,04,10,15,41,12.50
2015,04,10,15,42,12.60
2015,04,10,15,43,12.70
2015,04,10,15,44,12.80
2015,04,10,15,45,12.90
2015,04,10,15,46,13.00
2015,04,10,15,47,13.10
2015,04,10,15,48,13.10
2015,04,10,15,49,13.20
2015,04,10,15,50,13.20
2015,04,10,15,51,13.30
2015,04,10,15,52,13.30
2015,04,10,15,53,13.40
2015,04,10,15,54,13.40
2015,04,10,15,55,13.50
2015,04,10,15,56,13.50
2015,04,10,15,57,13.60
2015,04,10,15,58,13.60
2015,04,10,15,59,13.70
2015,04,10,16,00,13.70
2015,04,10,16,01,13.70
2015,04,10,16,02,13.70
2015,04,10,16,03,13.70
2015,04,10,16,04,13.70
2015,04,10,16,05,13.70
2015,04,10,16,06,13.70
2015,04,10,16,07,13.70
2015,04,10,16,08,13.60
2015,04,10,16,09,13.60
2015,04,10,16,10,13.60
2015,04,10,16,11,13.60
2015,04,10,16,12,13.60
2015,04,10,16,13,13.50
2015,04,10,16,14,13.50
2015,04,10,16,15,13.50
2015,04,10,16,16,13.40
2015,04,10,16,17,13.30
2015,04,10,16,18,13.20
2015,04,10,16,19,13.20
2015,04,10,16,20,13.10
2015,04,10,16,21,13.10
2015,04,10,16,22,13.00
2015,04,10,16,23,12.90
2015,04,10,16,24,12.80
2015,04,10,16,25,12.80
2015,04,10,16,26,12.80
2015,04,10,16,27,12.70
2015,04,10,16,28,12.70
2015,04,10,16,29,12.70
2015,04,10,16,30,12.60
2015,04,10,16,31,12.50
2015,04,10,16,32,12.50
2015,04,10,16,33,12.40
2015,04,10,16,34,12.30
2015,04,10,16,35,12.30
2015,04,10,16,36,12.20
2015,04,10,16,37,12.20
2015,04,10,16,38,12.10
2015,04,10,16,39,11.90
2015,04,10,16,40,11.90
2015,04,10,16,41,11.80
2015,04,10,16,42,11.70
2015,04,10,16,43,11.70
2015,04,10,16,44,11.60
2015,04,10,16,45,11.60
2015,04,10,16,46,11.50
2015,04,10,16,47,11.40
2015,04,10,16,48,11.40
2015,04,10,16,49,11.30
2015,04,10,16,50,11.20
2015,04,10,16,51,11.20
2015,04,10,16,52,11.10
2015,04,10,16,53,11.10
2015,04,10,16,54,11.00
2015,04,10,16,55,11.00
2015,04,10,16,56,10.90
2015,04,10,16,57,10.90
2015,04,10,16,58,10.80
2015,04,10,16,59,10.80
2015,04,10,17,00,10.70
2015,04,10,17,01,10.70
2015,04,10,17,02,10.60
2015,04,10,17,03,10.60
2015,04,10,17,04,10.60
2015,04,10,17,05,10.50
2015,04,10,17,06,10.40
2015,04,10,17,07,10.40
2015,04,10,17,08,10.30
2015,04,10,17,09,10.20
2015,04,10,17,10,10.20
2015,04,10,17,11,10.10
2015,04,10,17,12,10.10
2015,04,10,17,13,10.00
2015,04,10,17,14,10.00
2015,04,10,17,15,9.90
2015,04,10,17,16,9.90
2015,04,10,17,17,9.80
2015,04,10,17,18,9.80
2015,04,10,17,19,9.70
2015,04,10,17,20,9.70
2015,04,10,17,21,9.70
2015,04,10,17,22,9.60
2015,04,10,17,23,9.60
2015,04,10,17,24,9.60
2015,04,10,17,25,9.60
2015,04,10,17,26,9.60
2015,04,10,17,27,9.60
2015,04,10,17,28,9.50
2015,04,10,17,29,9.50
2015,04,10,17,30,9.50
2015,04,10,17,31,9.50
2015,04,10,17,32,9.40
2015,04,10,17,33,9.40
2015,04,10,17,34,9.40
2015,04,10,17,35,9.30
2015,04,10,17,36,9.30
2015,04,10,17,37,9.30
2015,04,10,17,38,9.30
2015,04,10,17,39,9.30
2015,04,10,17,40,9.30
2015,04,10,17,41,9.20
2015,04,10,17,42,9.20
2015,04,10,17,43,9.20
2015,04,10,17,44,9.20
2015,04,10,17,45,9.20
2015,04,10,17,46,9.10
2015,04,10,17,47,9.10
2015,04,10,17,48,9.10
2015,04,10,17,49,9.10
2015,04,10,17,50,9.10
2015,04,10,17,51,9.10
2015,04,10,17,52,9.00